Location: Oberkirch
(48.5323°N, 8.0787°E)
Time: 15:56:18
(UTC+00:00)

CZ-2C R/B - Pass Details

Date: 08 November 2025
Orbit: 664 x 773 km, 98.4° (Epoch: 12 December)

Event Time Altitude Azimuth Distance (km) Brightness Sun altitude
Rises 04:13:17 0° 10° (N) 3,175 5.8 -21.9°
Reaches altitude 10° 04:15:36 10° 5° (N) 2,264 5.0 -21.6°
Maximum altitude 04:20:25 51° 291° (WNW) 953 2.6 -20.8°
Enters shadow 04:21:39 41° 248° (WSW) 1,093 2.8 -20.6°
